Dewpoint
58 57 58 58 58 57 57 57 57 57 57 58 57 55 55 57 55 57 58 57 59 57 56 56 56 56 57 57 57 51 52 56 55 56 54 54 54 54 53 53 52 53
57 58 56 57 57 57 58 59 59 58 58 59 58 57 56 57 56 56 58 57 57 56 56 56 57 56 56 55 55 55 54 56 54 53 54 54 54 54 54 53 52 53
58 58 57 57 56 58 58 58 61 60 58 59 60 58 57 58 56 57 58 57 56 56 56 56 56 55 56 55 54 56 54 54 55 55 55 55 55 54 54 55 53 52
59 59 58 58 57 59 60 57 60 61 61 58 59 60 57 57 57 57 58 57 57 56 56 56 55 54 53 53 54 56 53 54 54 55 55 54 56 54 53 53 53 51
59 59 60 61 60 61 59 58 58 59 60 60 58 59 58 57 58 56 57 57 57 56 56 55 55 55 56 54 53 55 52 54 54 54 54 53 54 53 54 55 51 52
59 57 58 59 61 62 60 58 59 60 60 60 59 56 57 58 56 55 55 56 56 55 56 55 54 54 53 54 53 54 50 52 51 52 52 52 51 53 49 53 50 49
60 60 61 61 59 60 61 60 58 59 60 60 59 58 56 57 56 55 53 55 54 53 53 54 54 54 53 54 51 53 51 52 50 48 49 50 51 50 50 50 49 49
61 60 61 60 61 61 59 58 58 59 59 59 59 59 58 55 54 55 54 53 53 52 53 53 53 52 53 53 51 52 52 52 53 49 48 49 51 48 49 50 51 47
60 59 60 60 59 58 58 57 58 58 57 59 60 58 56 56 55 55 54 52 52 53 52 52 53 52 53 52 52 51 51 51 54 50 49 50 50 49 46 46 49 48
59 60 60 60 59 60 60 58 56 56 56 58 57 58 55 56 55 53 53 53 52 52 52 52 53 53 53 51 51 50 50 50 51 51 50 50 50 48 46 48 47 48
58 59 59 60 60 59 60 61 60 60 59 58 58 57 56 56 55 54 52 52 53 52 51 51 52 52 51 51 52 52 51 51 51 49 50 49 50 49 50 49 48 48
60 60 59 58 59 58 58 58 58 59 58 61 61 57 55 58 56 57 56 53 52 51 51 50 51 51 51 51 50 51 51 51 52 51 50 48 49 49 47 49 48 47
58 60 60 59 59 58 58 59 60 60 58 57 58 57 58 59 59 58 59 58 58 58 54 52 51 54 55 52 51 50 51 50 52 52 51 51 50 48 48 48 47 47
56 59 59 59 59 59 59 59 59 58 57 58 59 59 59 58 57 58 58 59 58 58 58 57 58 57 56 52 51 51 51 51 50 51 50 51 51 49 49 48 48 48
52 54 55 57 58 58 58 58 57 57 57 57 58 58 58 58 59 58 58 57 58 58 58 59 59 57 56 54 52 51 52 51 50 50 50 50 50 50 49 48 47 47
49 50 51 52 53 53 55 59 58 58 58 57 57 57 57 58 58 57 57 57 56 56 56 58 56 56 54 50 48 51 53 50 52 51 49 49 49 49 49 48 47 46
49 50 51 50 50 51 52 50 49 55 58 58 58 57 57 57 57 56 56 56 55 55 56 57 57 56 50 46 44 43 48 53 51 51 50 49 49 48 47 47 46 43
47 47 47 48 49 48 48 49 51 49 50 53 57 57 57 57 57 56 56 56 56 56 56 56 56 51 48 45 43 43 45 53 52 50 50 49 48 47 45 45 44 44
46 44 46 48 48 48 50 50 47 49 50 49 49 56 54 54 54 54 54 55 55 54 54 55 56 49 46 43 41 41 42 47 49 50 48 47 46 45 44 43 43 44
43 42 43 46 48 48 49 48 48 48 51 52 51 50 52 54 53 53 53 54 53 53 53 55 56 46 43 41 40 40 41 45 48 48 47 45 44 43 45 44 44 44
40 43 47 47 45 44 47 44 46 49 48 49 50 51 51 50 50 51 53 52 53 53 53 53 57 42 41 40 39 39 40 43 48 47 44 45 45 45 45 45 45 47
40 46 49 48 48 48 47 46 48 50 50 51 50 50 49 48 49 50 51 52 53 53 52 52 45 39 39 38 38 38 39 44 43 43 42 42 44 43 45 45 45 44
38 40 46 47 46 44 44 47 47 47 49 50 49 49 49 49 48 48 49 50 51 52 51 45 42 38 37 37 37 39 42 43 43 40 41 43 43 43 42 42 43 41
38 36 39 45 45 42 44 48 49 49 48 50 48 48 48 48 48 48 48 48 50 51 46 43 39 37 36 35 35 37 41 42 42 42 43 41 42 43 43 42 39 46
38 39 39 41 41 42 46 46 47 47 47 49 48 48 48 48 46 45 48 46 45 44 43 39 35 34 34 33 34 36 41 44 41 40 39 40 37 37 39 39 39 42
41 41 42 41 40 44 47 47 49 48 49 48 49 46 45 46 48 46 45 43 42 41 40 37 34 34 35 33 34 35 37 36 34 33 32 34 35 33 34 33 32 30